COSMOS 2251 DEB, 33758

Orbit data source: Space-Track

COSMOS 2251 DEB, 33758 is space debris in LEO originally from a launch on Wed, 16 Jun 1993 UTC launched from the Plesetsk Missile And Space Complex (PKMTR). The debris from Iridium 33, an American commercial communications satellite, has been tracked extensively since its accidental collision with the defunct Russian satellite Cosmos 2251 in 2009. This event, occurring at high speed in low Earth orbit (LEO), generated thousands of pieces of space debris, significantly increasing the risk of further collisions. The Iridium 33 debris cloud has impacted space traffic management and orbital debris mitigation strategies, making it a subject of ongoing study in space situational awareness.

Loading next visibility...
Identifier
33758, 1993-036F
Orbit
LEO
Country
Flag of CISCIS
Related business
Manufacturer
Unknown
Mission
Spacecraft
Bus & Motor
Unknown
Mass
Unknown
Launch date (UTC)
1993-06-16 (33 years ago)
Launch vehicle
Unknown
Launch site
Plesetsk Missile And Space Complex (PKMTR)
Object type
Payload
Rocket body
Debris
Shape & HBR
Unknown shape, 0.3 m
Radar Cross Section
Small (<0.1 m²)

Expand to show TLE details & history
Last TLE update: 16 hours ago

TLE from 16 hours ago
0 COSMOS 2251 DEB
1 33758U 93036F   26036.62156169  .00005309  00000-0  13154-2 0  9993
2 33758  74.0278 111.6229 0015249 175.7057 308.0367 14.52098575891013
Epoch: 2026-02-05T14:55Z
TLE epoch observation values (Epoch: 2026-02-05T14:55:02.930Z)
Latitude
53.3089°
Longitude
-90.37169°
Altitude
720.517 km
Speed
7.504 km/s
True Right ascension
17h 56m 38s
True Declination
53° 08' 35"
Sunlit
Object was in daylight at epoch
Visualization orbit readout
Latitude
Unknown
Longitude
Unknown
Altitude
Unknown
Speed
Unknown
Apparent Right ascension
Unknown
Apparent Declination
Unknown
Sunlit
N/A
Visualization observer readout
Local Sidereal Time
09:25:28
Azimuth
Unknown
Elevation
Unknown
Doppler factor
Unknown
Orbital elements
Apogee altitude
727.228 km
Perigee altitude
705.591 km
Semi-major axis
7,094.547 km
Eccentricity
0.00152
Inclination
74.0278°
RAAN
111.6229°
Arg. of periapsis
175.7057°
True anomaly
307.89891°
Mean anomaly
308.0367°
Eccentric anomaly
307.96782°
Mean motion
3.63209 °/min
Orbital period
99.12 mins
BSTAR
0.0013154
Loading maneuver chart data...
Computing Atmospheric mass density...

Documentation

Showing up to 5 results
|